sat.trackr.live / text

‹ back to catalog

STARLINK-6091

NORAD 56119 · 2023-046AC

PAYLOAD ACTIVE UNKNOWN

§ Identity

Operator
Country
US
Launch date
2023-03-29
Launch site
AFETR
Launch vehicle
Mass (kg)
RCS (m²)

Purposes: comms

External: N2YO · Heavens-Above · Gunter

§ Orbital elements

Epoch: 2026-05-25T04:08:59.305632Z

Period
94.27 min
Inclination
43.0019°
Eccentricity
0.0000167
Mean motion
15.27592499 rev/d
Perigee alt
482.9 km
Apogee alt
483.1 km
Semi-major
6,861.1 km
B*
9.8663e-5
RAAN
75.3640°
Arg perigee
280.9430°
Mean anomaly
79.1402°
Rev number
17,389

§ Raw data

STARLINK-60911 56119U 23046AC  26145.17290863  .00002455  00000+0  98663-4 0  99922 56119  43.0019  75.3640 0000167 280.9430  79.1402 15.27592499173890

JSON: /api/v1/satellites/56119 · /tle

For live sub-satellite position, see the globe view (requires WebGL).

§ Visibility from observer

Set your observer location to see the next 7 days of passes ≥ 10°. The values pass through the URL so the page stays shareable.

No JS? Fill the form by hand. The geolocation button needs JavaScript.